This demonstration page uses our WeatherBlox Daily Observations layout. Learn more.

41.55636, -103.73856

Hourly Observations for March 12, 2019

Temp ( °F °C ) Dew Point ( °F °C ) Humidity (%) Winds ( mph kmh ) Pressure ( in mb ) Visibility ( mi km ) Precip ( " mm )
12:58 am 00:58 Partly Cloudy 38 3.6 31 -0.6 74 74 S 6 9 30.14 1021 10 16.0934 0 0
1:58 am 01:58 Partly Cloudy 36 2.3 29 -1.4 77 77 S 10 17 30.16 1021 10 16.0934 0 0
2:58 am 02:58 Clear 33 0.8 28 -2.2 81 81 SSW 9 15 30.14 1021 10 16.0934 0 0
3:58 am 03:58 Clear 34 1.2 27 -2.7 76 76 WSW 7 11 30.12 1020 10 16.0934 0 0
4:58 am 04:58 Clear 32 -0.1 26 -3.3 79 79 SW 14 22 30.12 1020 10 16.0934 0 0
5:58 am 05:58 Clear 34 1.2 26 -3.3 72 72 SW 14 22 30.08 1019 10 16.0934 0 0
6:58 am 06:58 Clear 33 0.7 25 -3.7 73 73 SW 15 24 30.04 1017 10 16.0934 0 0
7:58 am 07:58 Clear 37 2.5 27 -2.9 68 68 SW 14 22 30.01 1016 10 16.0934 0 0
8:58 am 08:58 Partly Cloudy 37 2.6 27 -2.6 69 69 WSW 14 22 29.97 1015 10 16.0934 0 0
9:58 am 09:58 Mostly Cloudy 34 1 27 -2.8 76 76 W 7 11 29.95 1014 10 16.0934 0 0
10:58 am 10:58 Mostly Cloudy 36 2.1 27 -2.6 71 71 W 9 15 29.91 1013 10 16.0934 0 0
12:58 pm 12:58 Mostly Clear 32 0 26 -3.6 77 77 WNW 3 6 29.9 1013 10 16.0934 0 0
1:58 pm 13:58 Mostly Sunny 35 1.5 25 -3.7 69 69 Calm 29.91 1013 10 16.0934 0 0
2:58 pm 14:58 Sunny 40 4.5 25 -3.7 56 56 Calm 29.87 1012 10 16.0934 0 0
3:58 pm 15:58 Sunny 42 5.6 25 -4 50 50 Calm 29.85 1011 10 16.0934 0 0
4:58 pm 16:58 Sunny 42 5.5 26 -3.2 54 54 Calm 29.83 1010 10 16.0934 0 0
5:58 pm 17:58 Sunny 44 6.7 28 -2.2 53 53 S 5 7 29.78 1009 10 16.0934 0 0
6:58 pm 18:58 Sunny 44 6.9 30 -1.1 57 57 S 6 9 29.75 1008 10 16.0934 0 0
7:58 pm 19:58 Sunny 45 7.3 32 -0.2 59 59 S 5 7 29.71 1006 10 16.0934 0 0
8:58 pm 20:58 Sunny 47 8.1 33 0.3 58 58 SSE 6 9 29.65 1004 10 16.0934 0 0
9:58 pm 21:58 Sunny 47 8.4 33 0.6 58 58 ESE 5 7 29.66 1004 10 16.0934 0 0
10:58 pm 22:58 Sunny 47 8.3 33 0.5 58 58 E 5 7 29.62 1003 10 16.0934 0 0
11:58 pm 23:58 Mostly Sunny 45 7.1 33 0.3 62 62 E 6 9 29.62 1003 10 16.0934 0 0

Powered by AerisWeather